Tracking 25195 objects as of 21-Jan-2022
HD Live streaming from Space Station
objects crossing your sky now

INTELSAT 6B (PAS 6B)

Track INTELSAT 6B (PAS 6B) now!
INTELSAT 6B (PAS 6B) is classified as:


NORAD ID: 25585
Int'l Code: 1998-075A
Perigee: 36,053.4 km
Apogee: 36,168.7 km
Inclination: 9.8 °
Period: 1,452.3 minutes
Semi major axis: 42482 km
RCS: 21.1435 m2 (large)
Launch date: December 22, 1998
Source: United States (US)
Launch site: FRENCH GUIANA (FRGUI)

voice and video communcations; 32 Ku-band; South America.
aabbcc
Your satellite tracking list
Your tracking list is empty




NASA's NSSDC Master Catalog

Two Line Element Set (TLE):
1 25585U 98075A   22020.55024799 -.00000032  00000-0  00000-0 0  9997
2 25585   9.8142  41.4492 0013559 124.1854 242.9319  0.99150467 84040
Source of the keplerian elements: AFSPC